Total_Precipitation_Accumulation
0.02 0.08 0.28 0.44 0.44 0.44 0.44 0.43 0.40 0.35 0.34 0.38 0.43 0.47 0.50 0.47 0.43 0.39 0.37 0.39 0.42 0.46 0.52 0.60 0.62 0.65 0.63 0.61 0.56 0.49 0.48 0.49 0.48 0.46 0.49 0.54 0.54 0.50 0.44 0.40 0.30 0.36 0.56
0.02 0.09 0.25 0.34 0.37 0.40 0.43 0.42 0.38 0.34 0.33 0.37 0.41 0.42 0.43 0.43 0.43 0.44 0.42 0.41 0.43 0.47 0.54 0.62 0.61 0.61 0.62 0.60 0.54 0.45 0.41 0.37 0.37 0.36 0.32 0.30 0.46 0.52 0.45 0.45 0.41 0.61 0.71
0.02 0.07 0.18 0.28 0.33 0.37 0.40 0.38 0.36 0.36 0.36 0.39 0.40 0.40 0.39 0.40 0.42 0.46 0.47 0.47 0.46 0.44 0.46 0.53 0.57 0.57 0.55 0.49 0.44 0.39 0.38 0.32 0.27 0.26 0.25 0.18 0.37 0.61 0.57 0.54 0.52 0.72 0.72
0.02 0.06 0.12 0.22 0.30 0.34 0.37 0.38 0.39 0.40 0.41 0.46 0.45 0.43 0.43 0.42 0.42 0.45 0.46 0.46 0.46 0.44 0.44 0.46 0.45 0.46 0.42 0.35 0.34 0.35 0.38 0.34 0.25 0.20 0.11 0.11 0.34 0.64 0.68 0.61 0.58 0.63 0.68
0.03 0.06 0.13 0.24 0.29 0.33 0.38 0.39 0.41 0.41 0.44 0.51 0.52 0.49 0.48 0.48 0.46 0.46 0.44 0.43 0.41 0.41 0.41 0.43 0.39 0.38 0.37 0.34 0.33 0.33 0.34 0.31 0.24 0.16 0.07 0.09 0.27 0.57 0.58 0.57 0.52 0.56 0.61
0.02 0.05 0.12 0.24 0.31 0.33 0.36 0.38 0.39 0.40 0.44 0.51 0.50 0.50 0.50 0.53 0.50 0.46 0.44 0.43 0.40 0.39 0.40 0.40 0.38 0.38 0.36 0.33 0.34 0.39 0.39 0.35 0.23 0.12 0.09 0.10 0.17 0.40 0.53 0.57 0.57 0.53 0.49
0.03 0.06 0.13 0.26 0.34 0.36 0.38 0.39 0.42 0.44 0.47 0.48 0.49 0.49 0.51 0.54 0.52 0.48 0.42 0.40 0.38 0.37 0.39 0.40 0.37 0.38 0.38 0.36 0.36 0.39 0.46 0.38 0.23 0.22 0.17 0.15 0.19 0.34 0.46 0.57 0.58 0.54 0.53
0.04 0.08 0.16 0.31 0.38 0.39 0.42 0.41 0.44 0.47 0.51 0.51 0.48 0.50 0.54 0.58 0.54 0.49 0.44 0.42 0.40 0.38 0.38 0.34 0.30 0.30 0.33 0.37 0.37 0.38 0.42 0.32 0.24 0.30 0.33 0.30 0.29 0.39 0.49 0.55 0.57 0.57 0.60
0.06 0.10 0.19 0.33 0.41 0.47 0.50 0.48 0.48 0.52 0.55 0.55 0.53 0.52 0.53 0.57 0.54 0.50 0.43 0.42 0.41 0.39 0.38 0.33 0.29 0.27 0.28 0.28 0.30 0.33 0.34 0.31 0.34 0.44 0.38 0.42 0.37 0.49 0.57 0.55 0.56 0.60 0.63
0.10 0.14 0.22 0.31 0.40 0.46 0.51 0.51 0.52 0.51 0.54 0.57 0.56 0.56 0.52 0.52 0.54 0.50 0.43 0.41 0.42 0.41 0.41 0.38 0.34 0.30 0.29 0.27 0.25 0.26 0.28 0.27 0.27 0.35 0.44 0.38 0.39 0.58 0.71 0.66 0.59 0.60 0.64
0.18 0.21 0.27 0.34 0.41 0.49 0.53 0.51 0.56 0.58 0.58 0.61 0.59 0.58 0.59 0.54 0.52 0.49 0.43 0.39 0.40 0.41 0.41 0.39 0.37 0.36 0.34 0.28 0.24 0.24 0.23 0.18 0.22 0.32 0.37 0.33 0.42 0.63 0.81 0.78 0.72 0.65 0.65
0.21 0.25 0.31 0.36 0.44 0.53 0.58 0.60 0.65 0.64 0.60 0.59 0.53 0.54 0.56 0.57 0.55 0.48 0.44 0.42 0.41 0.44 0.46 0.45 0.41 0.39 0.36 0.27 0.24 0.27 0.19 0.13 0.14 0.15 0.17 0.22 0.33 0.52 0.79 0.88 0.86 0.81 0.77
0.19 0.27 0.33 0.40 0.46 0.55 0.61 0.63 0.62 0.65 0.62 0.59 0.54 0.52 0.53 0.58 0.55 0.52 0.50 0.50 0.48 0.45 0.47 0.50 0.53 0.48 0.44 0.36 0.31 0.29 0.22 0.19 0.16 0.13 0.11 0.16 0.22 0.35 0.56 0.74 0.91 0.95 0.96
0.20 0.29 0.36 0.44 0.53 0.59 0.62 0.65 0.62 0.59 0.58 0.55 0.55 0.54 0.55 0.54 0.50 0.47 0.43 0.41 0.42 0.40 0.41 0.45 0.47 0.50 0.52 0.49 0.40 0.33 0.32 0.30 0.24 0.20 0.16 0.19 0.20 0.28 0.46 0.61 0.78 0.94 1.04
0.20 0.30 0.40 0.48 0.53 0.62 0.70 0.67 0.65 0.59 0.54 0.52 0.55 0.55 0.54 0.53 0.49 0.46 0.43 0.42 0.41 0.36 0.34 0.37 0.36 0.35 0.36 0.41 0.41 0.38 0.37 0.33 0.30 0.30 0.26 0.27 0.25 0.24 0.38 0.54 0.67 0.85 1.02
0.22 0.31 0.41 0.51 0.56 0.62 0.70 0.69 0.65 0.61 0.58 0.58 0.54 0.52 0.54 0.55 0.51 0.46 0.43 0.40 0.40 0.38 0.36 0.34 0.34 0.32 0.28 0.26 0.25 0.26 0.31 0.33 0.34 0.34 0.30 0.30 0.29 0.25 0.31 0.46 0.61 0.76 0.97
0.25 0.34 0.44 0.49 0.58 0.62 0.67 0.72 0.70 0.65 0.62 0.63 0.58 0.55 0.56 0.58 0.58 0.53 0.49 0.43 0.39 0.38 0.38 0.39 0.39 0.36 0.32 0.28 0.24 0.22 0.22 0.23 0.27 0.31 0.32 0.31 0.33 0.30 0.30 0.39 0.54 0.67 0.84
0.29 0.38 0.49 0.54 0.59 0.63 0.67 0.75 0.74 0.73 0.66 0.66 0.67 0.64 0.59 0.58 0.60 0.61 0.60 0.56 0.50 0.46 0.43 0.43 0.42 0.41 0.37 0.32 0.29 0.25 0.25 0.24 0.23 0.25 0.27 0.30 0.34 0.34 0.33 0.38 0.47 0.63 0.76
0.26 0.36 0.51 0.58 0.62 0.65 0.68 0.76 0.83 0.81 0.77 0.71 0.72 0.72 0.66 0.64 0.63 0.62 0.61 0.62 0.66 0.63 0.54 0.48 0.44 0.40 0.38 0.34 0.32 0.30 0.28 0.26 0.26 0.27 0.24 0.23 0.25 0.29 0.34 0.37 0.43 0.54 0.66
0.26 0.36 0.50 0.64 0.71 0.74 0.79 0.81 0.92 0.95 0.86 0.79 0.75 0.77 0.74 0.70 0.68 0.68 0.65 0.63 0.66 0.69 0.66 0.56 0.49 0.44 0.40 0.38 0.36 0.35 0.34 0.32 0.28 0.25 0.24 0.23 0.22 0.24 0.31 0.36 0.38 0.45 0.55
0.32 0.38 0.50 0.62 0.75 0.80 0.86 0.86 0.84 0.90 0.90 0.84 0.76 0.79 0.88 0.83 0.73 0.73 0.74 0.74 0.71 0.68 0.65 0.60 0.55 0.53 0.50 0.46 0.47 0.47 0.41 0.38 0.37 0.31 0.26 0.24 0.24 0.23 0.26 0.34 0.40 0.41 0.49
0.33 0.37 0.48 0.62 0.73 0.77 0.78 0.84 0.82 0.86 0.87 0.89 0.84 0.84 0.90 0.96 0.88 0.79 0.76 0.77 0.75 0.69 0.65 0.60 0.59 0.62 0.60 0.53 0.50 0.54 0.55 0.52 0.44 0.36 0.30 0.25 0.25 0.25 0.26 0.29 0.37 0.42 0.45
0.30 0.34 0.40 0.56 0.74 0.80 0.78 0.88 0.95 1.02 1.07 1.05 0.98 0.91 0.91 0.94 0.92 0.85 0.78 0.71 0.74 0.73 0.69 0.62 0.59 0.60 0.63 0.58 0.49 0.59 0.70 0.60 0.42 0.35 0.32 0.28 0.26 0.26 0.26 0.27 0.32 0.40 0.44
0.32 0.36 0.38 0.47 0.64 0.84 0.86 0.88 0.94 0.99 1.01 1.06 0.99 0.92 0.90 0.94 0.97 0.92 0.88 0.80 0.73 0.71 0.67 0.63 0.62 0.61 0.66 0.67 0.57 0.51 0.53 0.55 0.60 0.48 0.35 0.34 0.33 0.31 0.29 0.28 0.29 0.35 0.43
0.39 0.46 0.45 0.50 0.58 0.78 0.83 0.83 0.88 0.92 0.94 1.02 1.05 0.98 0.95 0.98 1.02 1.02 0.99 0.93 0.87 0.78 0.69 0.64 0.64 0.66 0.68 0.69 0.64 0.56 0.50 0.44 0.46 0.59 0.48 0.41 0.45 0.43 0.40 0.37 0.36 0.37 0.42
0.44 0.55 0.55 0.58 0.58 0.69 0.86 0.84 0.81 0.85 0.88 0.94 0.99 1.05 1.05 1.03 1.04 1.03 1.03 0.99 0.93 0.92 0.83 0.73 0.68 0.69 0.69 0.68 0.68 0.65 0.64 0.62 0.52 0.55 0.55 0.44 0.44 0.43 0.44 0.48 0.49 0.48 0.49